Location: Praha
(50.0755°N, 14.4378°E)
Time: 15:53:11
(UTC+01:00)

Mayak - Visible Passes

Search period start: 25 March 2019 00:00
Search period end: 04 April 2019 01:00
Orbit: 583 x 602 km, 97.6° (Epoch: 25 March)

Date Brightness Start Highest point End Pass type
(mag) Time Alt. Az. Time Alt. Az. Time Alt. Az.
26 Mar 1.9 00:05:23 10° N 00:05:52 13° N 00:05:52 13° N visible
26 Mar 1.8 22:38:18 10° NNE 22:38:19 10° NNE 22:38:19 10° NNE visible
27 Mar 1.8 00:14:23 10° N 00:14:55 13° NNW 00:14:55 13° NNW visible
27 Mar 1.7 22:47:04 10° NNE 22:47:22 12° NNE 22:47:22 12° NNE visible
28 Mar 1.8 00:23:26 10° NNW 00:23:58 12° NNW 00:23:58 12° NNW visible
28 Mar 1.6 22:55:52 10° NNE 22:56:25 13° NNE 22:56:25 13° NNE visible
29 Mar 1.8 00:32:32 10° NNW 00:33:01 12° NNW 00:33:01 12° NNW visible
29 Mar 1.5 23:04:40 10° NNE 23:05:28 15° NNE 23:05:28 15° NNE visible
30 Mar 1.8 00:41:43 10° NNW 00:42:04 11° NNW 00:42:04 11° NNW visible
30 Mar 1.4 23:13:31 10° NNE 23:14:30 17° N 23:14:30 17° N visible
31 Mar 1.8 00:51:04 10° NNW 00:51:06 10° NW 00:51:06 10° NW visible
01 Apr 1.4 00:22:22 10° N 00:23:33 18° N 00:23:33 18° N visible
02 Apr 1.3 00:31:15 10° N 00:32:35 20° N 00:32:35 20° N visible
03 Apr 1.3 00:40:09 10° N 00:41:38 20° N 00:41:38 20° N visible
03 Apr 1.5 23:13:42 10° NE 23:14:03 12° NE 23:14:03 12° NE visible
04 Apr 1.2 00:49:04 10° N 00:50:40 21° NNW 00:50:40 21° NNW visible
